Tracking 19485 objects as of 22-Jan-2019
HD Live streaming from Space Station
objects crossing your sky now

TELECOM 1A

Track TELECOM 1A now!
TELECOM 1A is classified as:


NORAD ID: 15159
Int'l Code: 1984-081B
Perigee: 36,151.2 km
Apogee: 36,503.5 km
Inclination: 15.4 °
Period: 1,463.4 minutes
Semi major axis: 42698 km
RCS: 10.2909 m2 (large)
Launch date: August 4, 1984
Source: France (FR)
Launch site: FRENCH GUIANA (FRGUI)
aabbcc
Your satellite tracking list
Your tracking list is empty




NASA's NSSDC Master Catalog

Two Line Element Set (TLE):
1 15159U 84081B   19020.34050219 -.00000139 +00000-0 +00000-0 0  9992
2 15159 015.3963 355.6068 0041249 337.1477 211.7869 00.98398022092001
Source of the keplerian elements: AFSPC